Orbital Elements at Epoch 2459000.5 (2020-May-31.0) TDB
Reference: JPL 19 (heliocentric ecliptic J2000)
Element | Value | Uncertainty (1-sigma) | Units |
e | .2205235184935319 | 5.3694e-08 | |
a | 2.594408275699579 | 1.6784e-08 | au |
q | 2.022280234333571 | 1.4677e-07 | au |
i | 2.429712389968097 | 3.6121e-06 | deg |
node | 91.05929357361076 | 0.00013496 | deg |
peri | 308.6256334964615 | 0.0001356 | deg |
M | 111.9089988653772 | 1.4316e-05 | deg |
tp | 2458526.019445941898 (2019-Feb-11.51944594) | 5.7618e-05 | TDB |
period | 1526.356246528477 4.18 | 1.4812e-05 4.055e-08 | d yr |
n | .2358558172895605 | 2.2888e-09 | deg/d |
Q | 3.166536317065587 | 2.0486e-08 | au |
|
| | Orbit Determination Parameters
Additional Information
|